Location: *
(39.6167°S, 171.5333°W)
Time: 05:37:57
(UTC+00:00)

ATLAS 5 CENTAUR R/B - Pass Details

Date: 13 May 2021
Orbit: 516 x 1141 km, 63.3° (Epoch: 02 May)

Event Time Altitude Azimuth Distance (km) Brightness Sun altitude
Rises 17:27:31 0° 206° (SSW) 3,571 5.1 -10.8°
Reaches altitude 10° 17:31:37 10° 181° (S) 2,469 4.5 -10.0°
Maximum altitude 17:34:27 14° 151° (SSE) 2,096 4.4 -9.5°
Drops below altitude 10° 17:37:04 10° 120° (ESE) 2,245 5.1 -9.0°
Sets 17:40:28 0° 94° (E) 3,021 6.6 -8.4°
